Regional Weather Roundup
Issued by NWS Raleigh/Durham, NC

Home | Current Version | Previous Version | Text Only | Print | Product List | Glossary On
Versions: 1 2 3 4 5 6 7 8 9 10 11 12 13 14 15 16 17 18 19 20 21 22 23 24 25 26 27 28 29 30 31 32 33 34 35 36 37 38 39 40 41 42 43 44 45 46 47 48 49 50
000
ASUS42 KRAH 261710
RWRRAH
NORTH CAROLINA WEATHER ROUNDUP
NATIONAL WEATHER SERVICE RALEIGH NC
100 PM EDT WED APR 26 2017

NOTE: "FAIR" INDICATES FEW OR NO CLOUDS BELOW 12,000 FEET WITH NO
SIGNIFICANT WEATHER AND/OR OBSTRUCTIONS TO VISIBILITY.

NCZ001-053-055-056-065-067-261800-
WESTERN NORTH CAROLINA

CITY           SKY/WX    TMP DP  RH WIND       PRES   REMARKS
ASHEVILLE      NOT AVBL
JEFFERSON      SUNNY     68  52  56 CALM      29.88F
MORGANTON      SUNNY     75  56  52 E3        29.87F
HICKORY        MOSUNNY   73  60  63 CALM      29.82F
RUTHERFORDTON  NOT AVBL
MOUNT AIRY     MOSUNNY   74  64  69 W5        29.83F
BOONE          SUNNY     70  48  46 NW3       29.89S
$$

NCZ021-022-025-041-071-084-088-261800-
CENTRAL NORTH CAROLINA

CITY           SKY/WX    TMP DP  RH WIND       PRES   REMARKS
CHARLOTTE      NOT AVBL
GREENSBORO     MOSUNNY   72  62  71 SW8       29.82F
WINSTON-SALEM  MOSUNNY   73  58  59 SW8       29.83F
RALEIGH-DURHAM PTSUNNY   74  62  66 SW12      29.83F
FORT BRAGG     SUNNY     76  60  55 SW9       29.83S
FAYETTEVILLE   MOSUNNY   78  61  55 SW13      29.83F
BURLINGTON     LGT RAIN  74  61  63 SW8       29.82F
LAURINBURG     SUNNY     77  65  66 SW10      29.84F
$$

NCZ011-015-027-028-043-044-047-080-103-261800-
NORTHEASTERN NORTH CAROLINA

CITY           SKY/WX    TMP DP  RH WIND       PRES   REMARKS
ROCKY MT-WILSO CLOUDY    74  62  66 SW7       29.82F
GREENVILLE     PTSUNNY   73  61  64 W7        29.85F
WASHINGTON     MOSUNNY   73  60  65 W5        29.83S
ELIZABETH CITY CLOUDY    67  61  81 VRB7      29.81F
MANTEO         CLOUDY    64  59  85 NW7       29.83S
CAPE HATTERAS  CLOUDY    70  60  70 W9        29.84S
$$

NCZ078-087-090-091-093-098-101-261800-
SOUTHEASTERN NORTH CAROLINA

CITY           SKY/WX    TMP DP  RH WIND       PRES   REMARKS
LUMBERTON      SUNNY     77  64  64 SW8       29.83F
GOLDSBORO      CLOUDY    74  64  71 W7        29.82F
KINSTON        MOSUNNY   73  61  64 SW5       29.84F
KENANSVILLE    SUNNY     75  61  60 W5        29.84F
NEW BERN       CLOUDY    75  63  66 W9        29.85F
CHERRY POINT   NOT AVBL
BEAUFORT       SUNNY     71  65  81 SW13      29.84F
JACKSONVILLE   NOT AVBL
WILMINGTON     SUNNY     77  61  57 W10       29.85F
$$




USA.gov is the U.S. government's official web portal to all federal, state and local government web resources and services.